Location: ????????
(55.6189°N, 38.3031°E)
Time: 06:28:23
(UTC+00:00)

Cosmos 1408 - Pass Details

Date: 15 November 2019
Orbit: 470 x 497 km, 82.6° (Epoch: 05 December)

Event Time Altitude Azimuth Distance (km) Brightness Sun altitude
Rises 02:50:29 0° 173° (S) 2,569 6.4 -18.0°
Reaches altitude 10° 02:52:39 10° 167° (SSE) 1,688 5.5 -17.7°
Maximum altitude 02:56:10 44° 95° (E) 697 3.8 -17.2°
Drops below altitude 10° 02:59:42 10° 23° (NNE) 1,689 5.5 -16.7°
Sets 03:01:52 0° 17° (NNE) 2,571 6.3 -16.4°
